This demonstration page uses our WeatherBlox Daily Observations layout. Learn more.

Left ArrowRight Arrow

47.50024, -111.30081

Hourly Observations for December 5, 2022

Temp ( °F °C ) Dew Point ( °F °C ) Humidity (%) Winds ( mph kmh ) Pressure ( in mb ) Visibility ( mi km ) Precip ( " mm )
12:16 am 00:16 Cloudy with Light Snow 22 -5.6 20 -6.7 92 92 ENE 12 19 30.11 1020 1 2 0.01 0.13
12:26 am 00:26 Cloudy with Light Snow 22 -5.6 20 -6.7 92 92 ENE 9 15 30.10 1019 1 2 0.01 0.13
12:53 am 00:53 Mostly Cloudy with Light Snow 21 -6.1 20 -6.7 95 95 ENE 7 11 30.05 1018 1 2 0.01 0.25
1:33 am 01:33 Cloudy with Light Snow 21 -6.1 20 -6.7 95 95 NE 8 13 30.10 1019 7 11 0.01 0.13
1:41 am 01:41 Cloudy with Light Snow 21 -6.1 20 -6.7 95 95 NE 9 15 30.10 1019 6 10 0.01 0.13
1:53 am 01:53 Cloudy with Light Snow 21 -6.1 20 -6.7 95 95 NE 8 13 30.04 1017 3 4 0.01 0.13
2:53 am 02:53 Cloudy with Light Snow 20 -6.7 17 -8.3 88 88 ENE 10 17 30.04 1017 3 4 0.01 0.13
3:53 am 03:53 Cloudy with Light Snow 20 -6.7 17 -8.3 88 88 E 6 9 30.04 1017 3 4 0.01 0.13
4:53 am 04:53 Cloudy with Light Snow 19 -7.2 17 -8.3 92 92 NE 6 9 30.04 1017 3 4 0.01 0.25
5:09 am 05:09 Cloudy with Light Snow 19 -7.2 17 -8.3 92 92 NNE 5 7 30.10 1019 3 5 0.01 0.13
5:53 am 05:53 Cloudy 19 -7.2 17 -8.3 92 92 NE 3 6 30.05 1018 9 14 0.01 0.13
6:13 am 06:13 Cloudy 19 -7.2 17 -8.3 92 92 NE 6 9 30.09 1019 10 16 0.00 0.00
6:24 am 06:24 Cloudy 19 -7.2 18 -7.8 95 95 NE 7 11 30.09 1019 10 16 0.00 0.00
6:53 am 06:53 Cloudy 19 -7.2 17 -8.3 92 92 ENE 7 11 30.03 1017 10 16 0.00 0.00
7:53 am 07:53 Cloudy with Light Snow 18 -7.8 16 -8.9 92 92 E 6 9 30.01 1016 8 13 0.01 0.13
8:53 am 08:53 Cloudy 18 -7.8 17 -8.3 96 96 E 6 9 29.98 1015 10 16 0.01 0.13
9:18 am 09:18 Cloudy 18 -7.8 17 -8.3 96 96 E 6 9 30.04 1017 10 16 0.00 0.00
9:26 am 09:26 Cloudy 18 -7.8 17 -8.3 96 96 E 6 9 30.03 1017 10 16 0.00 0.00
9:53 am 09:53 Cloudy 19 -7.2 17 -8.3 92 92 ESE 6 9 29.95 1014 8 13 0.00 0.00
10:20 am 10:20 Cloudy 18 -7.8 17 -8.3 96 96 ESE 7 11 29.99 1016 10 16 0.00 0.00
10:53 am 10:53 Cloudy 19 -7.2 17 -8.3 92 92 SE 8 13 29.91 1013 10 16 0.00 0.00
11:53 am 11:53 Cloudy 20 -6.7 17 -8.3 88 88 SE 5 7 29.86 1011 10 16 0.00 0.00
12:53 pm 12:53 Sunny 22 -5.6 18 -7.8 84 84 Calm 29.81 1010 10 16 0.00 0.00
1:53 pm 13:53 Mostly Sunny 24 -4.4 18 -7.8 77 77 Calm 29.78 1008 10 16 0.00 0.00
2:53 pm 14:53 Partly Cloudy 22 -5.6 17 -8.3 81 81 NNE 5 7 29.78 1009 10 16 0.00 0.00
3:53 pm 15:53 Cloudy 20 -6.7 18 -7.8 92 92 E 3 6 29.80 1009 10 16 0.00 0.00
4:53 pm 16:53 Mostly Cloudy 18 -7.8 16 -8.9 92 92 NE 3 6 29.80 1009 10 16 0.00 0.00
5:53 pm 17:53 Cloudy 17 -8.3 16 -8.9 95 95 NE 9 15 29.83 1010 10 16 0.00 0.00
6:53 pm 18:53 Cloudy 18 -7.8 17 -8.3 96 96 NE 6 9 29.86 1011 10 16 0.00 0.00
7:53 pm 19:53 Cloudy 18 -7.8 17 -8.3 96 96 NE 7 11 29.89 1012 10 16 0.00 0.00
8:01 pm 20:01 Cloudy 18 -7.8 17 -8.3 96 96 NE 8 13 29.94 1014 10 16 0.00 0.00
8:53 pm 20:53 Cloudy 18 -7.8 16 -8.9 92 92 NNW 7 11 29.92 1013 10 16 0.00 0.00
9:21 pm 21:21 Cloudy with Light Snow 17 -8.3 16 -8.9 95 95 W 5 7 29.99 1015 3 4 0.01 0.13
9:34 pm 21:34 Cloudy with Light Snow 17 -8.3 16 -8.9 95 95 W 7 11 29.99 1015 4 6 0.01 0.13
9:53 pm 21:53 Cloudy with Light Snow 17 -8.3 16 -8.9 95 95 W 8 13 29.95 1014 3 5 0.01 0.13
10:03 pm 22:03 Cloudy with Light Snow 17 -8.3 16 -8.9 95 95 W 7 11 30.01 1016 2 3 0.01 0.13
10:18 pm 22:18 Cloudy with Light Snow 17 -8.3 16 -8.9 95 95 W 8 13 30.01 1016 2 3 0.01 0.13
10:37 pm 22:37 Partly Cloudy with Isolated Snow Showers 18 -7.8 16 -8.9 92 92 W 8 13 30.01 1016 1 1 0.01 0.25
10:53 pm 22:53 Partly Cloudy with Isolated Snow Showers 17 -8.3 15 -9.4 92 92 NW 13 20 29.98 1015 1 1 0.01 0.25
11:05 pm 23:05 Partly Cloudy with Isolated Snow Showers 17 -8.3 15 -9.4 92 92 NNW 13 20 30.03 1017 1 1 0.01 0.25
11:49 pm 23:49 Cloudy with Light Snow 16 -9 12 -11 85 85 N 13 20 30.06 1018 1 2 0.02 0.51
11:53 pm 23:53 Cloudy with Light Snow 15 -9.4 13 -10.6 91 91 N 10 17 30.01 1016 1 1 0.03 0.76

Powered by AerisWeather